Location: Azul
(36.7830°S, 59.8500°W)
Time: 21:10:56
(UTC-03:00)

RS-44 - Pass Details

Date: 17 September 2024
Orbit: 1174 x 1511 km, 82.5° (Epoch: 11 October)

Event Time Altitude Azimuth Distance (km) Brightness Sun altitude
Rises 05:24:59 0° 206° (SSW) 4,434 ? -18.9°
Reaches altitude 10° 05:28:59 10° 224° (SW) 3,513 ? -18.1°
Enters shadow 05:32:06 16° 246° (WSW) 3,112 ? -17.5°
